Regional Weather Roundup
Issued by NWS Sterling, VA

Home | Current Version | Previous Version | Graphics & Text | Print | Product List | Glossary On
Versions: 1 2 3 4 5 6 7 8 9 10 11 12 13 14 15 16 17 18 19 20 21 22 23 24 25 26 27 28 29 30 31 32 33 34 35 36 37 38 39 40 41 42 43 44 45 46 47 48 49 50
888
ASUS41 KLWX 191910
RWRLWX

REGIONAL WEATHER ROUNDUP
NATIONAL WEATHER SERVICE BALTIMORE MD/WASHINGTON DC
200 PM EST SUN FEB 19 2017

Note: "FAIR" indicates few or no clouds below 12,000 feet
with no significant weather and/or obstructions to visibility.
 TC=TEMPERATURE CELSIUS

 * =Non NWS site. Station does not report precipitation (e.g. rain,
    snow, etc.), thunder, or fog.

DCZ001-MDZ009-015-VAZ040>042-051-053>054-192000-
WASHINGTON METRO

CITY           SKY/WX    TMP DP  RH WIND       PRES   REMARKS
WASHINGTON NAT MOSUNNY   70  44  39 W15       29.91S
DULLES         MOSUNNY   67  41  38 NW12G23   29.92F
ANDREWS AFB    SUNNY     69  43  39 NW13      29.89S
FT BELVOIR     SUNNY     69  42  37 NW12G21   29.91S
QUANTICO       MOSUNNY   71  45  39 VRB7G28   29.92F
COLLEGE PARK*  SUNNY     68  41  37 NW10      29.89S
LEESBURG*      SUNNY     68  46  45 W13G23    29.93S
MANASSAS*      SUNNY     70  44  39 NW15      29.92F
GAITHERSBURG*  SUNNY     66  43  42 W15       29.94S

$$

MDZ006>007-011-014-192000-
BALTIMORE METRO

CITY           SKY/WX    TMP DP  RH WIND       PRES   REMARKS
BWI AIRPORT    MOSUNNY   69  42  37 W12G21    29.88S
MD SCIENCE CTR   N/A     70  40  33 MISG      29.88S
MARTIN STATE   MOSUNNY   72  45  37 W17       29.88F
ANNAPOLIS      SUNNY     65  41  41 NW12      29.87S
FORT MEADE*    SUNNY     70  39  32 W10       29.91S

$$

MDZ012-015-019>023-192000-
MARYLAND EASTERN SHORE

CITY           SKY/WX    TMP DP  RH WIND       PRES   REMARKS
OCEAN CITY     CLOUDY    66  43  43 VRB6      29.87S
SALISBURY      SUNNY     68  44  42 MISG      29.87F
BAY BRIDGE AP* SUNNY     68  43  40 NW5       29.88F
CAMBRIDGE*     SUNNY     64  43  45 NW8       29.89R

$$

MDZ017>025-192000-
SOUTHERN MARYLAND

CITY           SKY/WX    TMP DP  RH WIND       PRES   REMARKS
PATUXENT RIVER MOSUNNY   69  48  47 NW9       29.89S
ST INIGOES     MOSUNNY   66  46  48 W10       29.89F
LEONARDTOWN*   SUNNY     68  41  37 W7        29.91S

$$

MDZ003>005-192000-
NORTH CENTRAL MARYLAND

CITY           SKY/WX    TMP DP  RH WIND       PRES   REMARKS
FREDERICK*     SUNNY     68  45  42 W14G21    29.94S
HAGERSTOWN APT SUNNY     66  41  40 W14       29.91S
WESTMINSTER*   SUNNY     66  43  42 W12G18    29.90R

$$

MDZ501>502-192000-
WESTERN MARYLAND

CITY           SKY/WX    TMP DP  RH WIND       PRES   REMARKS
OAKLAND*       CLOUDY    43  43 100 SW9G16    30.01S FOG
CUMBERLAND*    SUNNY     63  41  45 NW7       30.01S

$$

VAZ025>031-192000-
SHENANDOAH VALLEY

CITY           SKY/WX    TMP DP  RH WIND       PRES   REMARKS
WINCHESTER*    SUNNY     63  41  45 W14G20    29.94F
FRONT ROYAL*   SUNNY     68  43  40 W9G18     29.93S
LURAY*         SUNNY     68  43  40 NW8       29.95S
NEW MARKET*    SUNNY     67  38  34 W10G18    29.96S
STAUNTON*      SUNNY     67  43  41 NW8       29.98S
WAYNESBORO*    MOSUNNY   67  39  35 NW8       29.97S

$$

WVZ021-048>050-054>055-192000-
EASTERN WEST VIRGINIA PANHANDLE

CITY           SKY/WX    TMP DP  RH WIND       PRES   REMARKS
MARTINSBURG    SUNNY     67  40  37 W14       29.92F
PETERSBURG*    SUNNY     62  45  53 W13       30.00F

$$

VAZ036>039-050-192000-
CENTRAL FOOTHILLS

CITY           SKY/WX    TMP DP  RH WIND       PRES   REMARKS
CHARLOTTESVILL MOSUNNY   72  42  34 VRB6G16   29.93F
CULPEPER*      MOSUNNY   72  45  38 N8        29.93S
ORANGE*        SUNNY     72  43  35 NW6       29.93F
GORDONSVILLE*  MOSUNNY   71  44  37 NW7G16    29.93R
WARRENTON*     SUNNY     73  37  27 SW6       29.92S

$$

VAZ055>057-192000-
NORTH AND CENTRAL PIEDMONT

CITY           SKY/WX    TMP DP  RH WIND       PRES   REMARKS
FREDERICKSBRG* SUNNY     71  47  42 NW9       29.91S
STAFFORD*      MOSUNNY   70  44  40 W12       29.96S

$$

NCZ024-NYZ072-PAZ021-071-VAZ022-071-192000-
OTHER REGIONAL OBSERVATIONS

CITY           SKY/WX    TMP DP  RH WIND       PRES   REMARKS
NEW YORK CITY  MOSUNNY   64  33  31 VRB7      29.81F
PHILADELPHIA   MOSUNNY   68  39  34 W12G24    29.84S
PITTSBURGH     SUNNY     62  39  42 W14       29.98S
ROANOKE        MOSUNNY   65  42  43 NW13      30.04R
RICHMOND       PTSUNNY   71  45  39 NW7       29.92S
RALEIGH        MOSUNNY   71  42  35 VRB7      29.97S

$$

ANZ530>537-192000-
MARINE OBSERVATIONS

STATION/POSITION TIME  TEMP    WIND        PRES
                       AIR SEA DIR/SP/G
                 (UTC) (F)     (DEG/KT/KT) (MB)
THOMAS PT LIGHT  1900   66 41  290/ 10/ 12   N/A
BALT KEY BRIDGE  1842   65     320/ 13/ 14 1011.5F
COVE POINT       1842   57      CALM  /  2 1012.8S
LEWISETTA        1842   65 44  310/  9/ 10 1012.3S
SOLOMONS ISLAND  1842   65 42  330/  8/ 10   N/A
PINEY POINT      1842          310/ 15/ 16   N/A

$$





USA.gov is the U.S. government's official web portal to all federal, state and local government web resources and services.